Irkutsk, Russia

5:49 AM +08 on November 21, 2018 (GMT +0800)
Irkutsk

Weather History for UIII - September, 2018

Change the Weather History Date:

Friday, September 14, 2018

  Actual Average Record
Temperature  
Mean Temperature 45 °F -  
Max Temperature 61 °F - - ()
Min Temperature 29 °F - - ()
Degree Days  
Heating Degree Days 20    
Moisture  
Dew Point 34 °F    
Average Humidity 72    
Maximum Humidity 100    
Minimum Humidity 26    
Precipitation  
Precipitation 0.00 in - - ()
Sea Level Pressure  
Sea Level Pressure 30.18 in    
Wind  
Wind Speed 5 mph ()    
Max Wind Speed 11 mph    
Max Gust Speed -    
Visibility 6.2 miles    
Events      
T = Trace of Precipitation, MM = Missing Value Source: Averaged Metar Reports

Daily Weather History Graph

Daily Weather History Graph

Search for Another Location

Airport or City:

Astronomy

Sep. 14, 2018 Rise Set
Actual Time 6:34 AM +08 7:20 PM +08
Civil Twilight 6:00 AM +08 7:55 PM +08
Nautical Twilight 5:18 AM +08 8:36 PM +08
Astronomical Twilight 4:34 AM +08 9:20 PM +08
Moon 11:49 AM +08 (9/14) 9:44 PM +08 (9/14)
Length of Visible Light 13h 54m
Length of Day
12h 46m
Waxing Crescent, 23% of the Moon is Illuminated
Sep 14
Waxing Crescent
Sep 17
First Quarter
Sep 25
Full
Oct 2
Last Quarter
Oct 9
New

Hourly Weather History & Observations

Time (+08) Temp. Windchill Dew Point Humidity Pressure Visibility Wind Dir Wind Speed Gust Speed Precip Events Conditions
12:00 AM 32.0 °F 27.6 °F 32.0 °F 100% 30.27 in - SE 4.5 mph - N/A   Clear
12:30 AM 33.8 °F 29.7 °F 33.8 °F 100% 30.27 in - East 4.5 mph - N/A   Clear
1:00 AM 32.0 °F 27.6 °F 32.0 °F 100% 30.27 in - NE 4.5 mph - N/A   Clear
1:30 AM 30.2 °F 25.5 °F 30.2 °F 100% 30.27 in - East 4.5 mph - N/A   Clear
2:00 AM 31 °F - 30 °F 96% 30.37 in - ENE 2.2 mph - -  
2:00 AM 28.4 °F 23.4 °F 28.4 °F 100% 30.27 in - East 4.5 mph - N/A   Clear
2:30 AM 30.2 °F 23.5 °F 30.2 °F 100% 30.27 in 6.2 mi East 6.7 mph - N/A   Partly Cloudy
3:00 AM 30.2 °F 25.5 °F 30.2 °F 100% 30.27 in 6.2 mi East 4.5 mph - N/A   Partly Cloudy
3:30 AM 30.2 °F 25.5 °F 30.2 °F 100% 30.27 in 6.2 mi East 4.5 mph - N/A   Partly Cloudy
4:00 AM 30.2 °F 23.5 °F 30.2 °F 100% 30.24 in 6.2 mi East 6.7 mph - N/A   Partly Cloudy
4:30 AM 26.6 °F 21.3 °F 26.6 °F 100% 30.24 in 6.2 mi East 4.5 mph - N/A   Partly Cloudy
5:00 AM 30 °F - 29 °F 93% 30.37 in - ENE 2.2 mph - -  
5:00 AM 30.2 °F 23.5 °F 30.2 °F 100% 30.24 in 6.2 mi East 6.7 mph - N/A   Partly Cloudy
5:30 AM 30.2 °F 25.5 °F 30.2 °F 100% 30.24 in 6.2 mi East 4.5 mph - N/A   Partly Cloudy
6:00 AM 30.2 °F 25.5 °F 30.2 °F 100% 30.24 in 6.2 mi East 4.5 mph - N/A   Partly Cloudy
6:30 AM 30.2 °F 23.5 °F 30.2 °F 100% 30.24 in 6.2 mi East 6.7 mph - N/A   Partly Cloudy
7:00 AM 30.2 °F 25.5 °F 30.2 °F 100% 30.24 in 6.2 mi East 4.5 mph - N/A   Partly Cloudy
7:30 AM 32.0 °F 27.6 °F 32.0 °F 100% 30.24 in 6.2 mi East 4.5 mph - N/A   Partly Cloudy
8:00 AM 36 °F - 35 °F 96% 30.32 in 31 mi ESE 2.2 mph - -   Mostly Cloudy
8:00 AM 33.8 °F 27.9 °F 32.0 °F 93% 30.21 in 6.2 mi East 6.7 mph - N/A   Scattered Clouds
8:30 AM 35.6 °F 31.8 °F 33.8 °F 93% 30.21 in 6.2 mi East 4.5 mph - N/A   Partly Cloudy
9:00 AM 37.4 °F 30.9 °F 33.8 °F 87% 30.21 in 6.2 mi SE 8.9 mph - N/A   Partly Cloudy
9:30 AM 39.2 °F 33.1 °F 33.8 °F 81% 30.21 in 6.2 mi SSE 8.9 mph - N/A   Partly Cloudy
10:00 AM 42.8 °F 37.6 °F 35.6 °F 76% 30.18 in - SSE 8.9 mph - N/A   Clear
10:30 AM 44.6 °F 39.8 °F 35.6 °F 71% 30.18 in - SSE 8.9 mph - N/A   Clear
11:00 AM 46 °F - 33 °F 50% 30.23 in 31 mi SE 2.2 mph - -   Overcast
11:00 AM 46.4 °F 43.0 °F 33.8 °F 62% 30.18 in - South 6.7 mph - N/A   Clear
11:30 AM 48.2 °F - 33.8 °F 58% 30.15 in - South 6.7 mph - N/A   Clear
12:00 PM 50.0 °F - 33.8 °F 54% 30.15 in - South 8.9 mph - N/A   Clear
12:30 PM 51.8 °F - 33.8 °F 50% 30.15 in - South 8.9 mph - N/A   Clear
1:00 PM 53.6 °F - 33.8 °F 47% 30.12 in - SSE 4.5 mph - N/A   Clear
1:30 PM 55.4 °F - 32.0 °F 41% 30.12 in - SSW 4.5 mph - N/A   Clear
2:00 PM 59 °F - 33 °F 26% 30.13 in 31 mi SW 2.2 mph - -   Scattered Clouds
2:30 PM 57.2 °F - 33.8 °F 41% 30.12 in - West 6.7 mph - N/A   Clear
3:00 PM 59.0 °F - 33.8 °F 39% 30.09 in - SSE 4.5 mph - N/A   Clear
3:30 PM 60.8 °F - 33.8 °F 36% 30.09 in - SSW 4.5 mph - N/A   Clear
4:00 PM 59.0 °F - 33.8 °F 39% 30.06 in - South 8.9 mph - N/A   Clear
4:30 PM 59.0 °F - 33.8 °F 39% 30.06 in - South 8.9 mph - N/A   Clear
5:00 PM 56 °F - 37 °F 38% 30.08 in 31 mi SW 2.2 mph - -   Overcast
5:00 PM 59.0 °F - 35.6 °F 42% 30.06 in - SW 6.7 mph - N/A   Clear
5:30 PM 57.2 °F - 35.6 °F 44% 30.06 in - SW 6.7 mph - N/A   Clear
6:00 PM 57.2 °F - 37.4 °F 48% 30.06 in - SW 6.7 mph - N/A   Clear
6:30 PM 57.2 °F - 37.4 °F 48% 30.06 in - SW 4.5 mph - N/A   Clear
7:00 PM 55.4 °F - 35.6 °F 47% 30.06 in - SSW 4.5 mph - N/A   Clear
7:30 PM 55.4 °F - 37.4 °F 51% 30.06 in - SW 6.7 mph - N/A   Clear
8:00 PM 51 °F - 38 °F 50% 30.12 in 31 mi West 4.5 mph - -   Overcast
8:00 PM 55.4 °F - 33.8 °F 44% 30.09 in - WNW 11.2 mph - N/A   Clear
8:30 PM 50.0 °F - 37.4 °F 62% 30.09 in - North 8.9 mph - N/A   Clear
9:00 PM 50.0 °F - 37.4 °F 62% 30.12 in - NE 11.2 mph - N/A   Clear
9:30 PM 48.2 °F - 37.4 °F 66% 30.12 in - NE 8.9 mph - N/A   Clear
10:00 PM 44.6 °F 42.3 °F 35.6 °F 71% 30.12 in - NE 4.5 mph - N/A   Clear
10:30 PM 44.6 °F - 37.4 °F 76% 30.12 in - Variable 2.2 mph - N/A   Clear
11:00 PM 43 °F - 39 °F 79% 30.19 in - SE 2.2 mph - -   Overcast
11:00 PM 44.6 °F - 37.4 °F 76% 30.12 in - South 2.2 mph - N/A   Clear
11:30 PM 44.6 °F 42.3 °F 37.4 °F 76% 30.12 in - SSE 4.5 mph - N/A   Clear